Time,TemperatureF,DewpointF,PressureIn,WindDirection,WindDirectionDegrees,WindSpeedMPH,WindSpeedGustMPH,Humidity,HourlyPrecipIn,Conditions,Clouds,dailyrainin,SolarRadiationWatts/m^2,SoftwareType,DateUTC
2013-01-24 00:12:00,29.0,27.0,-100.00,South,178,2.0,3.0,91,-99.99,,,0.00,0.000000,,2013-01-24 08:12:00,
2013-01-24 01:12:00,29.0,27.0,-100.00,SSW,205,2.0,4.0,89,-99.99,,,0.00,0.000000,,2013-01-24 09:12:00,
2013-01-24 02:12:00,29.0,27.0,-100.00,NE,37,1.0,2.0,92,-99.99,,,0.00,0.000000,,2013-01-24 10:12:00,
2013-01-24 03:12:00,29.0,28.0,-100.00,NE,43,1.0,2.0,95,-99.99,,,0.00,0.000000,,2013-01-24 11:12:00,
2013-01-24 04:12:00,28.0,27.0,-100.00,South,184,1.0,2.0,95,-99.99,,,0.00,0.000000,,2013-01-24 12:12:00,
2013-01-24 05:12:00,28.0,27.0,-100.00,SSW,195,1.0,2.0,95,-99.99,,,0.00,0.000000,,2013-01-24 13:12:00,
2013-01-24 06:12:00,28.0,26.0,-100.00,WNW,294,1.0,2.0,91,-99.99,,,0.00,0.000000,,2013-01-24 14:12:00,
2013-01-24 07:12:00,29.0,27.0,-100.00,SSE,158,1.0,2.0,92,-99.99,,,0.00,0.000000,,2013-01-24 15:12:00,
2013-01-24 08:12:00,29.0,27.0,-100.00,SE,140,2.0,3.0,94,-99.99,,,0.00,0.000000,,2013-01-24 16:12:00,
2013-01-24 09:12:00,29.0,28.0,-100.00,NNE,32,0.0,2.0,97,-99.99,,,0.00,9.180000,,2013-01-24 17:12:00,
2013-01-24 10:12:00,30.0,29.0,-100.00,NNW,342,0.0,2.0,97,-99.99,,,0.00,50.439999,,2013-01-24 18:12:00,
2013-01-24 12:11:00,33.0,32.0,-100.00,SE,131,1.0,3.0,93,-99.99,,,0.00,256.269989,,2013-01-24 20:11:00,
2013-01-24 12:42:00,36.0,32.0,-100.00,NW,316,1.0,4.0,87,-99.99,,,0.00,395.029999,,2013-01-24 20:42:00,
2013-01-24 12:52:00,36.0,32.0,-100.00,NW,316,1.0,4.0,87,-99.99,,,0.00,395.029999,,2013-01-24 20:52:00,
2013-01-24 13:02:00,36.0,32.0,-100.00,NW,316,1.0,4.0,87,-99.99,,,0.00,395.029999,,2013-01-24 21:02:00,
2013-01-24 13:11:00,36.0,32.0,-100.00,NW,316,1.0,4.0,87,-99.99,,,0.00,395.029999,,2013-01-24 21:11:00,
2013-01-24 14:12:00,41.0,33.0,-100.00,SW,216,1.0,3.0,74,-99.99,,,0.00,443.380005,,2013-01-24 22:12:00,
2013-01-24 15:12:00,40.0,34.0,-100.00,NNW,341,0.0,2.0,77,-99.99,,,0.00,183.160004,,2013-01-24 23:12:00,
2013-01-24 16:12:00,40.0,33.0,-100.00,North,358,1.0,2.0,78,-99.99,,,0.00,84.489998,,2013-01-25 00:12:00,
2013-01-24 17:12:00,39.0,33.0,-100.00,North,9,0.0,1.0,79,-99.99,,,0.00,31.150000,,2013-01-25 01:12:00,
2013-01-24 18:02:00,37.0,33.0,-100.00,WNW,285,1.0,3.0,84,-99.99,,,0.00,1.050000,,2013-01-25 02:02:00,
2013-01-24 18:11:00,37.0,33.0,-100.00,WNW,285,1.0,3.0,84,-99.99,,,0.00,1.050000,,2013-01-25 02:11:00,
2013-01-24 19:12:00,35.0,32.0,-100.00,NNW,335,0.0,1.0,89,-99.99,,,0.00,0.000000,,2013-01-25 03:12:00,
2013-01-24 20:12:00,34.0,32.0,-100.00,WNW,291,2.0,4.0,93,-99.99,,,0.00,0.000000,,2013-01-25 04:12:00,
2013-01-24 21:12:00,34.0,33.0,-100.00,NNW,338,1.0,3.0,97,-99.99,,,0.00,0.000000,,2013-01-25 05:12:00,
2013-01-24 22:11:00,33.0,33.0,-100.00,SSW,213,1.0,2.0,98,-99.99,,,0.00,0.000000,,2013-01-25 06:11:00,
2013-01-24 23:11:00,34.0,33.0,-100.00,WSW,247,0.0,1.0,98,-99.99,,,0.00,0.000000,,2013-01-25 07:11:00,